Flag for Canada Weather past 2 weeks in Yarmouth County, Nova Scotia, Canada

Now
59 °F

Sunny.


Feels Like: 57 °F
Forecast: 59 / 72 °F
Wind: 9 mph from West

Location: Yarmouth

Current Time: Jul 25, 2014 at 10:19:10 PM

Latest Report: Jul 25, 2014 at 9:00 PM


Visibility: 15 mi

Pressure: 29.90 "Hg

Humidity: 88%

Dew point: 55 °F

Location of Yarmouth CountyLocation

Historic Weather in Yarmouth County — Graph

°F

Yarmouth County temperature yesterday

Maximum temperature yesterday: 68 °F (at 4:00 PM)
Minimum temperature yesterday: 61 °F (at 1:00 AM)
Average temperature yesterday: 63 °F

Past Weeks' High & Low Weather Summary

 TemperatureHumidityPressure
High77 °F (Jul 19, 1:00 PM)100% (Jul 10, 9:00 PM)30.29 "Hg (Jul 10, 9:00 PM)
Low54 °F (Jul 13, 6:00 AM)50% (Jul 11, 3:00 PM)29.76 "Hg (Jul 24, 6:00 PM)
Average64 °F88%30.04 "Hg
* Reported Jul 10 9:00 PM — Jul 25 9:00 PM, Yarmouth County, Weather by CustomWeather, © 2014

Note: Actual official high and low records may vary slightly from our data, if they occured in-between our weather recording intervals... More about our weather records

Advertising

Yarmouth County weather history for previous 24 hours

 ConditionsComfort  
Time TempWeatherWind HumidityBarometerVisibility
9:00 PM
Jul 25
59 °FSunny.9 mph88%29.90 "Hg15 mi
8:00 PM63 °FSunny.10 mph77%29.90 "Hg15 mi
7:00 PM64 °FSunny.12 mph64%29.89 "Hg15 mi
6:00 PM66 °FSunny.12 mph64%29.88 "Hg15 mi
5:00 PM66 °FSunny.13 mph64%29.88 "Hg15 mi
4:00 PM70 °FPassing clouds.10 mph60%29.87 "Hg15 mi
3:00 PM68 °FPassing clouds.12 mph64%29.88 "Hg15 mi
2:00 PM70 °FScattered clouds.9 mph64%29.87 "Hg15 mi
1:00 PM68 °FPartly sunny.10 mph69%29.88 "Hg15 mi
12:00 PM66 °FPartly sunny.8 mph78%29.88 "Hg15 mi
11:00 AM66 °FPartly sunny.7 mph83%29.88 "Hg15 mi
10:00 AM66 °FPartly sunny.6 mph83%29.87 "Hg15 mi
9:00 AM64 °FPartly sunny.5 mph88%29.88 "Hg15 mi
8:00 AM61 °FOvercast.7 mph94%29.87 "Hg15 mi
7:00 AM57 °FOvercast.9 mph94%29.85 "Hg12 mi
6:00 AM55 °FPassing clouds.8 mph100%29.85 "Hg10 mi
5:00 AM57 °FPassing clouds.9 mph100%29.85 "Hg8 mi
4:00 AM59 °FFog.9 mph100%29.84 "Hg0 mi
3:00 AM57 °FFog.8 mph100%29.84 "Hg0 mi
2:04 AM59 °FFog.8 mph100%29.84 "Hg1 mi
2:00 AM59 °FSprinkles. Fog.8 mph100%29.83 "Hg2 mi
1:00 AM61 °FSprinkles. Low clouds.3 mph100%29.83 "Hg8 mi
12:00 AM61 °FSprinkles. Low clouds.6 mph100%29.83 "Hg10 mi
11:53 PM
Jul 24
63 °FSprinkles. Low clouds.5 mph100%29.82 "Hg10 mi
11:00 PM63 °FLow clouds.7 mph100%29.81 "Hg10 mi
10:00 PM63 °FLow clouds.8 mph100%29.81 "Hg10 mi
Weather by CustomWeather, © 2014

See weather overviewHow to use our weather pages